Probability
5 4 2 1 2 3 4 5 5 5 5 5 4 1 0 0 1 2 2 1 0 0 0 1 1 0 0 0 1 3 4 2 2 2 1 0 0 0 0 0 0 0 0
4 3 1 1 2 3 3 4 4 5 6 6 4 2 1 0 0 1 2 1 0 0 1 2 2 1 1 1 2 4 5 5 3 2 2 1 0 0 0 0 0 0 0
1 1 0 0 1 3 3 3 4 5 6 6 5 3 2 1 1 1 1 0 0 0 1 2 2 2 2 2 4 5 7 6 5 4 4 3 1 0 0 0 0 0 0
0 0 0 0 1 2 3 3 3 4 6 6 4 3 2 1 1 0 0 0 0 0 0 1 1 1 2 4 4 5 7 7 6 6 6 5 2 0 0 0 0 0 0
0 0 0 0 0 1 2 1 1 2 5 5 3 1 1 1 0 0 0 0 0 0 0 0 0 0 2 5 5 6 8 8 7 6 6 5 3 1 0 0 0 0 0
0 0 0 0 0 0 0 0 0 1 3 3 1 0 0 0 0 0 0 0 0 0 0 0 0 0 2 4 6 6 8 8 7 6 6 5 4 2 1 0 0 0 0
0 0 0 0 0 0 0 0 0 0 1 1 0 0 0 0 0 0 0 0 0 0 0 0 0 0 0 1 3 4 6 7 6 6 6 4 3 2 1 0 0 0 0
0 0 0 0 0 0 0 0 0 0 0 0 0 0 0 0 0 0 0 0 0 0 0 0 0 0 0 0 0 1 3 4 4 5 5 3 2 1 0 0 0 0 0
0 0 0 0 0 0 0 0 0 0 0 0 0 0 0 0 0 0 0 0 0 0 0 0 0 0 0 0 0 0 1 1 2 4 4 2 1 0 0 1 1 1 0
0 0 0 0 0 0 0 0 0 0 0 0 0 0 0 0 0 0 0 0 0 0 0 0 0 0 0 0 0 0 0 0 1 3 3 2 1 0 0 1 2 2 1
0 0 0 0 0 0 0 0 0 0 0 0 0 0 0 0 0 0 0 0 0 0 0 0 0 0 0 0 0 0 0 0 1 3 3 1 0 0 0 0 1 2 2
0 0 0 0 0 0 0 0 0 0 0 0 0 0 0 0 0 0 0 0 0 0 0 0 0 0 1 1 1 0 0 0 1 2 2 1 0 0 0 0 0 1 2
0 0 0 0 0 0 0 0 0 0 0 0 0 0 0 0 0 0 0 0 0 0 0 0 0 0 1 1 1 0 0 0 1 2 2 1 0 0 0 0 0 0 1
0 0 0 0 0 0 0 0 0 0 0 0 0 0 0 0 0 0 0 0 0 0 0 0 0 0 0 0 0 0 0 0 0 1 1 0 0 0 0 0 0 0 0
0 0 0 0 0 0 0 0 0 0 0 0 0 0 0 0 0 0 0 0 0 0 0 0 0 0 0 0 0 0 0 0 0 0 0 0 0 0 0 0 0 0 0
0 0 0 0 0 0 0 0 0 0 0 0 0 0 0 0 0 0 0 0 0 0 0 0 0 0 0 0 0 0 0 0 0 0 0 0 0 0 0 0 0 0 0
0 0 0 0 0 0 0 0 0 0 0 0 0 0 0 0 0 0 0 0 0 0 0 0 0 0 0 0 0 0 0 0 0 0 0 0 0 0 0 0 0 0 0
0 0 0 0 0 0 0 0 0 0 0 0 0 0 0 0 0 0 0 0 0 0 0 0 0 0 0 1 0 0 0 0 0 0 0 0 0 0 0 0 0 0 0
0 0 0 0 0 0 0 0 0 0 0 0 0 0 0 0 0 0 0 0 0 0 0 0 0 0 0 0 0 0 0 0 0 0 0 0 0 0 0 0 0 0 0
0 0 0 0 0 0 0 0 0 0 0 0 0 0 0 0 0 0 0 0 0 0 0 0 0 0 0 0 0 0 0 0 0 0 0 0 0 0 0 0 0 0 0
0 0 0 0 0 0 0 0 0 0 0 0 0 0 0 0 0 0 0 0 0 0 0 0 0 0 0 0 0 0 0 0 0 0 0 0 0 0 0 0 0 0 0
0 0 0 0 0 0 0 0 0 0 0 0 0 0 0 0 0 0 0 0 0 0 0 0 0 0 0 0 0 0 0 0 0 0 0 0 0 0 0 0 0 0 0
0 0 0 0 0 0 0 0 0 0 0 0 0 0 0 0 0 0 0 0 0 0 0 0 0 0 0 0 0 0 0 0 0 0 0 0 0 0 0 0 0 0 0
0 0 0 0 0 0 0 0 0 0 0 0 0 0 0 0 0 0 0 0 0 0 0 0 0 0 0 0 0 0 0 0 0 0 0 0 0 0 0 0 0 0 0
0 0 0 0 0 0 0 0 0 0 0 0 0 0 0 0 0 0 0 0 0 0 0 0 0 0 0 0 0 0 0 0 0 0 0 0 0 0 0 0 0 0 0
0 0 0 0 0 0 0 0 0 0 0 0 0 0 0 0 0 0 0 0 0 0 0 0 0 0 0 0 0 0 0 0 0 0 0 0 0 0 0 0 0 0 0
Wind_Speed
1 1 1 1 1 1 1 1 2 2 2 1 1 2 1 1 1 1 1 3 2 1 2 3 4 5 6 7 7 7 7 6 6 6 6 6 5 5 5 5 4 4 4
1 1 1 1 1 1 1 2 2 2 2 1 1 1 1 1 1 0 0 2 3 2 1 2 3 3 5 6 7 7 7 6 6 6 5 5 5 5 5 5 5 4 4
1 1 1 1 1 1 2 2 2 2 2 2 2 1 1 1 1 0 0 0 1 2 2 1 2 2 3 5 6 7 7 6 6 5 5 5 5 4 4 4 4 3 3
1 1 1 1 1 1 2 2 2 2 2 2 2 2 1 1 1 0 0 0 0 0 2 3 1 2 2 3 4 5 6 6 5 5 5 5 4 4 3 3 2 2 2
1 1 1 1 1 2 2 2 2 2 2 2 2 2 1 1 1 1 1 1 1 1 1 3 4 2 2 2 3 4 4 5 5 5 5 4 3 3 3 2 1 1 0
2 2 1 2 2 2 2 2 2 1 1 2 2 2 1 1 1 1 1 1 1 1 1 1 1 2 2 2 3 4 4 5 5 5 4 4 3 3 3 2 2 1 1
3 2 2 2 2 2 3 3 3 3 2 2 2 2 1 1 1 1 1 1 1 1 1 1 0 0 1 2 2 3 4 4 4 4 4 4 3 2 2 2 2 2 2
3 2 3 2 3 3 3 4 4 2 2 2 2 2 1 1 1 1 0 0 0 1 0 0 1 0 1 1 1 2 3 3 3 4 4 4 4 4 3 2 2 1 2
3 3 3 3 3 3 3 4 4 4 3 2 2 2 2 2 1 1 1 1 1 1 1 0 1 1 1 1 1 1 1 2 3 3 4 5 4 4 4 3 3 3 3
3 3 3 3 3 3 3 4 4 4 5 3 2 1 1 1 2 1 1 1 1 2 2 1 1 1 1 1 1 0 0 1 3 4 3 4 5 4 4 4 4 4 4
3 3 3 3 3 3 3 3 4 4 4 4 3 2 2 1 2 2 2 2 2 2 2 2 2 1 2 2 2 1 0 1 3 4 4 4 5 5 4 4 4 4 5
3 3 3 3 3 3 3 3 4 5 4 4 4 3 3 3 3 3 3 3 3 2 2 2 2 1 1 2 2 1 1 2 3 4 5 5 5 5 5 5 5 5 6
3 4 3 4 3 3 3 3 4 4 4 5 4 4 4 3 2 3 3 3 3 2 2 2 2 2 1 2 2 2 2 2 3 5 5 5 4 4 5 5 6 6 7
3 4 4 4 4 4 4 3 3 3 3 4 4 4 3 3 3 4 3 3 3 3 3 3 2 2 2 2 2 3 3 3 4 5 5 4 4 4 4 5 6 6 5
3 4 4 4 4 4 4 4 3 4 4 4 4 4 3 3 3 3 3 4 4 4 4 3 2 2 2 2 2 2 3 3 4 4 4 3 3 4 4 4 5 5 6
3 4 5 5 4 4 4 4 4 4 4 4 3 4 4 3 3 3 3 3 3 4 4 2 2 2 2 2 2 3 2 3 4 4 4 4 4 4 4 4 5 6 6
4 4 4 5 5 5 5 5 5 4 5 4 4 4 5 4 3 3 3 3 3 3 3 3 2 2 3 3 2 2 2 3 3 4 5 5 5 5 5 5 6 6 7
4 4 4 5 5 5 5 5 5 5 6 5 5 5 5 4 5 4 3 4 3 4 4 4 3 2 3 3 3 3 2 3 3 3 4 5 6 6 6 6 6 7 7
4 4 4 4 5 5 5 5 6 5 5 5 5 5 5 5 5 4 4 4 3 3 3 3 3 2 3 3 3 3 3 3 3 3 4 6 6 6 6 7 7 7 7
4 4 4 4 5 5 5 5 5 5 5 4 4 5 5 5 5 5 5 5 4 4 4 3 3 3 3 3 3 3 3 3 3 3 4 4 5 6 7 7 7 7 8
4 4 4 4 4 4 5 5 5 5 5 4 4 4 4 4 5 5 4 5 5 4 4 4 4 3 3 3 4 3 3 3 3 3 3 3 4 4 5 6 7 7 8
3 3 4 4 5 4 5 6 5 5 5 5 4 4 4 4 4 5 5 5 6 6 6 5 4 5 5 4 3 3 3 3 3 2 3 4 3 4 4 4 6 8 9
3 4 4 4 5 5 6 7 7 5 5 5 5 4 3 3 4 4 4 4 5 6 7 6 6 6 5 4 4 4 3 4 4 3 4 5 3 5 4 4 8 9 9
4 4 4 4 5 5 6 7 7 6 5 5 5 5 5 5 5 5 4 4 3 4 5 5 4 4 4 3 4 3 3 3 4 3 3 4 4 5 4 5 7 8 9
4 4 4 4 5 5 6 6 6 4 4 4 4 5 5 5 6 6 5 4 4 3 2 3 3 3 3 3 3 2 3 3 4 3 2 3 3 4 5 5 4 6 8
4 4 4 4 5 5 6 7 7 4 4 4 4 4 5 6 6 6 5 5 5 4 3 3 3 3 3 2 4 4 3 4 3 3 2 3 3 3 4 3 4 4 5
Wind_Direction
158 169 165 139 164 162 168 168 159 160 155 156 169 176 175 183 178 146 97 73 56 94 141 155 161 166 165 157 148 142 135 130 125 117 112 107 107 105 108 104 101 96 89
174 188 177 169 186 175 186 175 163 167 156 159 163 161 176 175 175 168 104 91 67 61 84 149 159 169 172 168 156 149 141 138 136 132 125 121 115 110 108 104 98 96 92
189 194 190 190 193 172 175 165 158 164 154 149 142 129 122 127 130 176 288 350 95 71 60 114 156 161 163 159 156 154 150 146 147 145 140 132 125 119 116 107 101 97 92
197 196 185 189 182 175 175 165 163 162 156 149 127 108 97 88 88 100 138 168 71 54 69 56 102 141 152 154 154 159 161 154 150 147 147 140 133 130 126 118 113 97 92
201 192 189 183 179 171 171 168 167 173 158 140 118 100 89 86 71 70 99 95 84 66 70 63 62 72 120 150 160 154 158 162 159 155 150 146 151 154 154 147 160 177 177
201 188 184 180 177 173 167 165 159 157 151 128 105 84 66 86 92 84 114 102 86 85 93 99 78 68 76 127 148 151 143 147 153 151 153 155 159 168 180 188 209 232 255
199 191 188 179 183 183 174 166 153 150 134 133 126 109 87 89 92 103 126 136 107 84 105 103 68 199 111 120 147 163 159 150 158 169 174 178 176 184 194 211 231 242 257
196 197 194 190 194 188 180 178 172 170 163 194 192 174 178 176 139 58 24 218 140 100 72 108 136 202 248 226 112 141 172 178 176 190 196 202 206 210 213 222 238 261 291
196 199 201 198 196 194 193 191 190 190 183 202 224 223 210 198 188 176 236 239 220 215 212 238 218 211 237 240 209 155 178 215 217 217 218 215 215 220 222 224 235 257 276
196 198 204 203 199 200 202 200 202 203 193 195 202 250 274 197 205 186 204 237 256 247 235 222 240 225 230 238 191 157 238 259 239 240 236 237 231 233 232 236 248 258 271
195 195 200 206 203 204 208 206 209 210 204 199 199 197 195 208 232 231 232 231 243 239 241 242 237 237 230 232 233 204 174 287 258 257 257 256 242 235 244 252 258 262 269
192 192 194 203 207 207 206 207 211 217 215 207 204 204 202 208 213 226 236 240 249 256 264 251 236 233 236 233 223 206 223 266 271 268 263 259 253 246 251 257 264 266 270
201 199 198 204 207 211 210 208 209 215 217 213 212 211 215 224 222 231 228 242 255 259 253 246 233 235 240 243 228 216 220 258 270 270 271 269 264 267 262 261 265 268 272
214 204 206 208 209 208 205 203 211 213 217 216 218 217 218 219 217 219 224 230 246 247 241 242 220 221 240 249 257 247 236 243 264 267 271 276 274 276 280 270 269 271 276
213 210 209 212 211 207 204 200 208 208 212 219 219 217 217 219 219 225 226 226 232 243 245 234 232 226 244 251 248 259 257 239 251 262 269 271 267 267 270 280 282 279 278
209 212 211 209 209 206 203 203 209 207 211 217 219 216 215 216 216 215 215 224 237 244 250 248 252 247 255 249 238 252 262 272 249 255 264 268 265 265 266 273 282 280 278
211 215 215 210 210 211 207 206 212 209 215 216 214 214 219 216 210 213 213 215 222 227 238 252 259 258 264 257 246 247 256 261 255 254 258 263 263 264 269 272 273 274 273
218 216 216 213 210 211 210 209 213 214 215 215 215 214 217 213 213 209 207 213 219 223 225 236 241 248 259 268 267 262 268 267 270 275 269 267 265 266 271 271 270 271 271
222 218 217 219 216 212 211 212 212 215 218 218 218 216 216 214 215 212 209 210 214 213 219 223 234 243 253 254 262 262 265 267 268 273 273 264 264 269 274 272 271 274 275
224 223 223 225 227 219 214 212 211 213 216 221 222 222 221 219 219 216 214 211 207 205 206 212 218 229 235 238 245 248 255 255 256 265 274 272 269 269 269 268 267 271 276
230 227 227 229 230 227 218 211 208 211 213 218 224 225 224 223 230 226 219 211 208 208 208 208 214 221 223 223 230 237 252 261 263 259 277 269 263 261 262 261 260 268 274
235 230 228 229 230 227 212 209 211 209 211 214 218 222 218 216 218 216 222 227 227 221 213 214 218 222 231 235 236 233 247 264 266 255 276 275 264 264 265 261 271 274 276
235 236 235 234 234 226 211 208 210 215 214 219 220 219 218 213 212 213 211 214 229 238 237 231 227 232 239 237 238 243 244 253 266 281 276 272 274 272 274 271 274 272 275
237 239 240 240 239 227 212 209 208 216 219 221 222 219 215 213 209 206 209 217 229 237 236 235 238 245 249 241 238 251 255 262 274 271 266 272 281 284 290 277 269 269 274
239 239 239 237 238 233 214 209 211 213 215 221 224 222 218 214 202 201 205 210 223 234 222 219 234 242 241 244 240 227 232 242 261 266 264 268 285 294 289 277 274 277 279
240 238 241 240 239 237 220 212 212 210 211 215 218 219 217 214 204 205 213 212 218 224 218 215 217 223 228 225 232 238 238 245 261 263 250 265 284 300 290 284 292 290 282